GOMX 1 (39430 NORAD) Tracking and Keplerian Element Data

This shows tracking and keplerian element data for the satellite.

Feedback or suggestion? Click here.




ElementValue
Catalog39430
NameGOMX 1
Epoch Orbit26527
Epoch Day319.85588469
Epoch Year2018
RAAN285.9564
Inclination97.7154
Eccentricity0.0150372
Argument of Perigee211.4821
Mean Anonmoly147.7352
Mean Motion14.59154221
Decay Rate1.39E-06
L11 39430U 13066Q 18319.85588469 .00000139 00000-0 34358-4 0 9990
L22 39430 97.7154 285.9564 0150372 211.4821 147.7352 14.59154221265275

Live tracking and technical data element details for GOMX 1 (NORAD 39430). GOMX 1 can be tracked NOW for your location showing map with azimuth and elevation plus other details from your city location.

Track the satellite on the map from your city or location and see movement details for azimuth, elevation, latitude, longitude, range, height, and movement on the map or in text.







IsCatalogInMostPopularTable: catalog: 39430, numindb: 141
Update: records affected: 1



GetName: 39430 GOMX 1

Hit Count: updated at: Fri, 16 Nov 2018 09:54:26 GMT